• en France
  • Liste des pays
  • À 7 jours
  • Température de l'eau
  • Carte satellitaire
  • Carte météo
  • Widgets météo
  • user-avatar
    Se connecter

    Météo par heure à Pecherzew

    Ce jour, 21 Juin, Jeudi

    Heure Température Précipitation Vent Pression Humidité
    00:00 +20°C° 0 mm 2 m/s 752 mmHg 77%
    01:00 +19°C° 0 mm 3 m/s 752 mmHg 77%
    02:00 +19°C° 0 mm 3 m/s 752 mmHg 79%
    03:00 +19°C° 0 mm 3 m/s 751 mmHg 80%
    04:00 +19°C° 0 mm 3 m/s 751 mmHg 82%
    05:00 +20°C° 0 mm 3 m/s 750 mmHg 78%
    06:00 +22°C° 0 mm 4 m/s 750 mmHg 74%
    07:00 +25°C° 0 mm 4 m/s 749 mmHg 70%
    08:00 +26°C° 0 mm 4 m/s 748 mmHg 65%
    09:00 +28°C° 0 mm 5 m/s 748 mmHg 60%
    10:00 +29°C° 0 mm 5 m/s 747 mmHg 55%
    11:00 +30°C° 0 mm 5 m/s 746 mmHg 53%
    12:00 +30°C° 0 mm 6 m/s 746 mmHg 52%
    13:00 +32°C° 0 mm 6 m/s 745 mmHg 50%
    14:00 +30°C° 0,1 mm 6 m/s 745 mmHg 53%
    15:00 +29°C° 0,1 mm 6 m/s 744 mmHg 56%
    16:00 +28°C° 0,1 mm 6 m/s 744 mmHg 60%
    17:00 +24°C° 0,7 mm 6 m/s 745 mmHg 67%
    18:00 +21°C° 0,7 mm 7 m/s 745 mmHg 75%
    19:00 +17°C° 0,7 mm 7 m/s 746 mmHg 82%
    20:00 +16°C° 0 mm 6 m/s 747 mmHg 81%
    21:00 +15°C° 0 mm 5 m/s 747 mmHg 79%
    22:00 +13°C° 0 mm 5 m/s 748 mmHg 78%
    23:00 +12°C° 0 mm 5 m/s 749 mmHg 77%

    Demain, 22 Juin, Vendredi

    Heure Température Précipitation Vent Pression Humidité
    00:00 +10°C° 0 mm 5 m/s 749 mmHg 77%
    01:00 +10°C° 0 mm 5 m/s 750 mmHg 77%
    02:00 +9°C° 0 mm 5 m/s 750 mmHg 79%
    03:00 +8°C° 0 mm 4 m/s 750 mmHg 81%
    04:00 +8°C° 0 mm 4 m/s 750 mmHg 83%
    05:00 +9°C° 0 mm 5 m/s 751 mmHg 77%
    06:00 +10°C° 0 mm 6 m/s 751 mmHg 72%
    07:00 +11°C° 0 mm 7 m/s 751 mmHg 66%
    08:00 +12°C° 0,1 mm 7 m/s 751 mmHg 64%
    09:00 +14°C° 0,1 mm 7 m/s 751 mmHg 61%
    10:00 +15°C° 0,1 mm 7 m/s 751 mmHg 58%
    11:00 +15°C° 0,3 mm 7 m/s 751 mmHg 58%
    12:00 +15°C° 0,3 mm 7 m/s 751 mmHg 59%
    13:00 +15°C° 0,3 mm 7 m/s 751 mmHg 59%
    14:00 +16°C° 0,1 mm 7 m/s 751 mmHg 58%
    15:00 +16°C° 0,1 mm 6 m/s 751 mmHg 57%
    16:00 +16°C° 0,1 mm 6 m/s 750 mmHg 55%
    17:00 +16°C° 0 mm 5 m/s 751 mmHg 60%
    18:00 +15°C° 0 mm 4 m/s 751 mmHg 65%
    19:00 +16°C° 0 mm 3 m/s 751 mmHg 70%
    20:00 +13°C° 0 mm 3 m/s 751 mmHg 74%
    21:00 +12°C° 0 mm 3 m/s 751 mmHg 79%
    22:00 +11°C° 0 mm 3 m/s 751 mmHg 83%
    23:00 +10°C° 0 mm 3 m/s 751 mmHg 85%

    Après-demain, 23 Juin, Samedi

    Heure Température Précipitation Vent Pression Humidité
    00:00 +10°C° 0 mm 3 m/s 751 mmHg 87%
    01:00 +9°C° 0 mm 3 m/s 751 mmHg 89%
    02:00 +10°C° 0 mm 4 m/s 751 mmHg 88%
    03:00 +10°C° 0 mm 4 m/s 751 mmHg 88%
    04:00 +9°C° 0 mm 5 m/s 751 mmHg 87%
    05:00 +10°C° 0,2 mm 5 m/s 751 mmHg 86%
    06:00 +10°C° 0,2 mm 6 m/s 751 mmHg 84%
    07:00 +11°C° 0,2 mm 7 m/s 751 mmHg 83%
    08:00 +11°C° 0,1 mm 7 m/s 751 mmHg 78%
    09:00 +12°C° 0,1 mm 7 m/s 751 mmHg 73%
    10:00 +14°C° 0,1 mm 7 m/s 751 mmHg 68%
    11:00 +14°C° 0,1 mm 7 m/s 751 mmHg 66%
    12:00 +15°C° 0,1 mm 7 m/s 751 mmHg 64%
    13:00 +15°C° 0,1 mm 7 m/s 751 mmHg 62%
    14:00 +16°C° 0,1 mm 7 m/s 751 mmHg 64%
    15:00 +16°C° 0,1 mm 7 m/s 751 mmHg 65%
    16:00 +16°C° 0,1 mm 7 m/s 750 mmHg 67%
    17:00 +15°C° 0,2 mm 6 m/s 751 mmHg 70%
    18:00 +15°C° 0,2 mm 6 m/s 751 mmHg 74%
    19:00 +14°C° 0,2 mm 5 m/s 751 mmHg 78%
    20:00 +13°C° 0 mm 5 m/s 751 mmHg 80%
    21:00 +13°C° 0 mm 5 m/s 751 mmHg 82%
    22:00 +12°C° 0 mm 5 m/s 751 mmHg 84%
    23:00 +12°C° 0 mm 5 m/s 751 mmHg 86%

    24 Juin, Dimanche

    Heure Température Précipitation Vent Pression Humidité
    00:00 +11°C° 0 mm 4 m/s 751 mmHg 89%
    01:00 +10°C° 0 mm 4 m/s 751 mmHg 91%
    02:00 +10°C° 0 mm 4 m/s 751 mmHg 93%
    03:00 +10°C° 0 mm 4 m/s 751 mmHg 95%
    04:00 +9°C° 0 mm 3 m/s 751 mmHg 96%
    05:00 +10°C° 0 mm 4 m/s 752 mmHg 93%
    06:00 +11°C° 0 mm 4 m/s 752 mmHg 90%
    07:00 +13°C° 0 mm 4 m/s 752 mmHg 87%
    08:00 +14°C° 0,2 mm 5 m/s 752 mmHg 83%
    09:00 +14°C° 0,2 mm 5 m/s 752 mmHg 79%
    10:00 +15°C° 0,2 mm 5 m/s 752 mmHg 76%
    11:00 +16°C° 0,3 mm 5 m/s 752 mmHg 72%
    12:00 +17°C° 0,3 mm 5 m/s 752 mmHg 67%
    13:00 +19°C° 0,3 mm 4 m/s 752 mmHg 63%
    14:00 +20°C° 0,3 mm 4 m/s 752 mmHg 62%
    15:00 +20°C° 0,3 mm 4 m/s 752 mmHg 60%
    16:00 +20°C° 0,3 mm 3 m/s 752 mmHg 59%
    17:00 +19°C° 0,4 mm 3 m/s 752 mmHg 65%
    18:00 +18°C° 0,4 mm 2 m/s 752 mmHg 70%
    19:00 +17°C° 0,4 mm 2 m/s 752 mmHg 76%
    20:00 +16°C° 0,2 mm 1 m/s 753 mmHg 79%
    21:00 +15°C° 0,2 mm 1 m/s 753 mmHg 82%
    22:00 +14°C° 0,2 mm 1 m/s 753 mmHg 85%
    23:00 +14°C° 0 mm 1 m/s 753 mmHg 86%

    25 Juin, Lundi

    Heure Température Précipitation Vent Pression Humidité
    00:00 +13°C° 0 mm 1 m/s 753 mmHg 87%
    01:00 +13°C° 0 mm 1 m/s 753 mmHg 88%
    02:00 +12°C° 0 mm 1 m/s 754 mmHg 89%
    03:00 +12°C° 0 mm 1 m/s 754 mmHg 89%
    04:00 +12°C° 0 mm 1 m/s 754 mmHg 90%
    05:00 +13°C° 0 mm 1 m/s 754 mmHg 85%
    06:00 +15°C° 0 mm 1 m/s 754 mmHg 80%
    07:00 +16°C° 0 mm 1 m/s 755 mmHg 75%
    08:00 +18°C° 0,1 mm 2 m/s 755 mmHg 68%
    09:00 +19°C° 0,1 mm 2 m/s 755 mmHg 62%
    10:00 +20°C° 0,1 mm 2 m/s 755 mmHg 55%
    11:00 +21°C° 0,1 mm 3 m/s 755 mmHg 51%
    12:00 +22°C° 0,1 mm 3 m/s 755 mmHg 47%
    13:00 +22°C° 0,1 mm 3 m/s 755 mmHg 44%
    14:00 +22°C° 0 mm 3 m/s 755 mmHg 44%
    15:00 +22°C° 0 mm 4 m/s 755 mmHg 44%
    16:00 +22°C° 0 mm 4 m/s 755 mmHg 44%
    17:00 +21°C° 0 mm 3 m/s 755 mmHg 49%
    18:00 +20°C° 0 mm 2 m/s 755 mmHg 55%
    19:00 +19°C° 0 mm 2 m/s 755 mmHg 61%
    20:00 +19°C° 0 mm 1 m/s 755 mmHg 62%
    21:00 +18°C° 0 mm 1 m/s 756 mmHg 64%
    22:00 +16°C° 0 mm 1 m/s 756 mmHg 65%
    23:00 +15°C° 0 mm 1 m/s 756 mmHg 65%

    26 Juin, Mardi

    Heure Température Précipitation Vent Pression Humidité
    00:00 +15°C° 0 mm 1 m/s 756 mmHg 66%
    01:00 +15°C° 0 mm 1 m/s 756 mmHg 66%
    02:00 +15°C° 0 mm 1 m/s 756 mmHg 68%
    03:00 +14°C° 0 mm 2 m/s 756 mmHg 71%
    04:00 +14°C° 0 mm 2 m/s 755 mmHg 73%
    05:00 +15°C° 0,2 mm 2 m/s 756 mmHg 74%
    06:00 +15°C° 0,2 mm 2 m/s 756 mmHg 75%
    07:00 +16°C° 0,2 mm 3 m/s 756 mmHg 76%
    08:00 +16°C° 0,5 mm 3 m/s 756 mmHg 76%
    09:00 +17°C° 0,5 mm 3 m/s 756 mmHg 75%
    10:00 +17°C° 0,5 mm 3 m/s 755 mmHg 75%
    11:00 +18°C° 0,1 mm 3 m/s 755 mmHg 71%
    12:00 +19°C° 0,1 mm 3 m/s 755 mmHg 68%
    13:00 +20°C° 0,1 mm 3 m/s 755 mmHg 64%
    14:00 +20°C° 0 mm 2 m/s 754 mmHg 63%
    15:00 +21°C° 0 mm 2 m/s 754 mmHg 62%
    16:00 +21°C° 0 mm 2 m/s 754 mmHg 61%
    17:00 +21°C° 0,5 mm 2 m/s 754 mmHg 66%
    18:00 +21°C° 0,5 mm 1 m/s 754 mmHg 71%
    19:00 +20°C° 0,5 mm 1 m/s 754 mmHg 77%
    20:00 +19°C° 0 mm 1 m/s 754 mmHg 80%
    21:00 +18°C° 0 mm 1 m/s 754 mmHg 84%
    22:00 +15°C° 0 mm 1 m/s 755 mmHg 87%
    23:00 +15°C° 0 mm 1 m/s 755 mmHg 89%
    Voir plus